Weather History for KBPK - August, 2014

Change the Weather History Date:

Saturday, August 9, 2014

  Actual Average (KHRO) Record (KHRO)
Temperature  
Mean Temperature 80 °F 79 °F  
Max Temperature 91 °F 90 °F 112 °F (1934)
Min Temperature 70 °F 68 °F 52 °F (1959)
Degree Days  
Heating Degree Days 0 0  
Month to date heating degree days 0  
Since 1 June heating degree days 6  
Since 1 July heating degree days 0  
Cooling Degree Days 16 14  
Month to date cooling degree days 126  
Year to date cooling degree days 944  
Since 1 June cooling degree days 805  
Growing Degree Days 30 (Base 50)    
Moisture  
Dew Point 70 °F    
Average Humidity 82    
Maximum Humidity 100    
Minimum Humidity 48    
Precipitation  
Precipitation 0.14 in 0.12 in 2.37 in (1998)
Month to date precipitation 1.14  
Year to date precipitation 26.52  
Snow  
Snow 0.00 in 0.00 in - ()
Month to date snowfall 0.0  
Since 1 June snowfall 0.0  
Since 1 July snowfall 0.0  
Snow Depth -    
Sea Level Pressure  
Sea Level Pressure 29.96 in    
Wind  
Wind Speed 3 mph (West)    
Max Wind Speed 16 mph    
Max Gust Speed 31 mph    
Visibility 9 miles    
Events Rain , Thunderstorm    
T = Trace of Precipitation, MM = Missing Value Source: NWS Daily Summary

Daily Weather History Graph

Daily Weather History Graph

Search for Another Location

Airport or City:

Trip Planner

Search our weather history database for the weather conditions in past years. The results will help you decide how hot, cold, wet, or windy it might be!

Date:

Astronomy

Aug. 09, 2014 Rise Set
Actual Time 6:22 AM CDT 8:07 PM CDT
Civil Twilight 5:55 AM CDT 8:35 PM CDT
Nautical Twilight 5:21 AM CDT 9:08 PM CDT
Astronomical Twilight 4:45 AM CDT 9:44 PM CDT
Moon 7:09 PM CDT (8/9) 5:04 AM CDT (8/9)
Length of Visible Light 14h 39m
Length of Day
13h 44m
Waxing Gibbous, 98% of the Moon is Illuminated
Aug 9
Waxing Gibbous
Aug 10
Full
Aug 17
Last Quarter
Aug 25
New
Sep 2
First Quarter

Hourly Weather History & Observations

Time (CDT) Temp. Heat Index Dew Point Humidity Pressure Visibility Wind Dir Wind Speed Gust Speed Precip Events Conditions
12:53 AM 73.9 °F - 72.0 °F 93% 29.93 in 8.0 mi Calm Calm - N/A   Clear
1:53 AM 75.0 °F - 70.0 °F 84% 29.92 in 10.0 mi NNE 3.5 mph - N/A   Partly Cloudy
2:53 AM 73.9 °F - 69.1 °F 85% 29.91 in 10.0 mi NE 4.6 mph - N/A   Mostly Cloudy
3:53 AM 73.0 °F - 69.1 °F 87% 29.91 in 10.0 mi Variable 3.5 mph - N/A   Partly Cloudy
4:53 AM 72.0 °F - 69.1 °F 91% 29.93 in 9.0 mi Variable 3.5 mph - N/A   Partly Cloudy
5:53 AM 71.1 °F - 69.1 °F 93% 29.94 in 8.0 mi Calm Calm - N/A   Mostly Cloudy
6:53 AM 70.0 °F - 69.1 °F 97% 29.96 in 7.0 mi Calm Calm - N/A   Clear
7:53 AM 73.0 °F - 70.0 °F 90% 29.97 in 7.0 mi Calm Calm - N/A   Clear
8:53 AM 75.0 °F - 70.0 °F 84% 29.98 in 8.0 mi Calm Calm - N/A   Partly Cloudy
9:53 AM 80.1 °F 83.8 °F 72.0 °F 76% 29.98 in 9.0 mi Calm Calm - N/A   Clear
10:53 AM 82.9 °F 88.0 °F 72.0 °F 69% 29.98 in 9.0 mi WNW 3.5 mph - N/A   Clear
11:53 AM 86.0 °F 90.7 °F 70.0 °F 59% 29.99 in 10.0 mi Calm Calm - N/A   Clear
12:53 PM 89.1 °F 95.0 °F 71.1 °F 55% 29.97 in 10.0 mi WSW 5.8 mph - N/A   Clear
1:53 PM 90.0 °F 94.5 °F 69.1 °F 50% 29.96 in 10.0 mi Variable 3.5 mph - N/A   Partly Cloudy
2:53 PM 91.0 °F 95.6 °F 69.1 °F 48% 29.91 in 10.0 mi ENE 4.6 mph - N/A   Clear
3:53 PM 86.0 °F 90.7 °F 70.0 °F 59% 29.93 in 10.0 mi Calm Calm - 0.00 in Rain Light Rain
4:14 PM 77.0 °F - 71.1 °F 82% 29.98 in 2.0 mi WSW 10.4 mph 19.6 mph 0.06 in Rain Light Rain
4:23 PM 77.0 °F - 71.1 °F 82% 29.99 in 10.0 mi WNW 3.5 mph - 0.06 in   Mostly Cloudy
4:49 PM 78.8 °F - 71.6 °F 78% 30.02 in 10.0 mi SW 16.1 mph 23.0 mph 0.06 in Thunderstorm Partly Cloudy
4:53 PM 75.9 °F - 71.1 °F 85% 30.00 in 10.0 mi SW 15.0 mph 31.1 mph 0.06 in Thunderstorm Scattered Clouds
5:34 PM 72.0 °F - 70.0 °F 93% 29.99 in 7.0 mi SSE 5.8 mph - 0.05 in Rain Light Rain
5:53 PM 71.1 °F - 70.0 °F 96% 29.96 in 7.0 mi Calm Calm - 0.06 in Rain Light Rain
6:53 PM 71.1 °F - 70.0 °F 96% 29.95 in 10.0 mi Calm Calm - 0.02 in   Scattered Clouds
7:53 PM 72.0 °F - 71.1 °F 97% 29.92 in 7.0 mi NW 3.5 mph - N/A   Clear
8:53 PM 72.0 °F - 71.1 °F 97% 29.94 in 10.0 mi Calm Calm - N/A   Clear
11:53 PM 70.0 °F - 70.0 °F 100% 29.98 in 8.0 mi Calm Calm - N/A   Mostly Cloudy